QPF
0.02 0.02 0.01 0.01 0.01 0.02 0.03 0.05 0.09 0.08 0.04 0.03 0.04 0.05 0.07 0.09 0.13 0.11 0.09 0.09 0.08 0.06 0.06 0.06 0.05 0.04 0.04 0.04 0.05 0.07 0.08 0.08 0.09 0.10 0.12 0.14 0.13 0.13
0.01 0.02 0.01 0.01 0.01 0.01 0.02 0.03 0.03 0.05 0.04 0.03 0.03 0.04 0.06 0.08 0.10 0.10 0.11 0.12 0.09 0.07 0.06 0.06 0.07 0.05 0.04 0.03 0.03 0.03 0.05 0.06 0.07 0.08 0.10 0.16 0.16 0.15
0.01 0.01 0.01 0.01 0.01 0.01 0.01 0.02 0.02 0.03 0.04 0.03 0.03 0.03 0.05 0.06 0.07 0.08 0.10 0.10 0.08 0.07 0.05 0.05 0.05 0.05 0.04 0.03 0.03 0.03 0.03 0.04 0.05 0.06 0.10 0.17 0.15 0.13
0.01 0.01 0.01 0.01 0.02 0.02 0.02 0.03 0.03 0.03 0.03 0.03 0.03 0.04 0.04 0.05 0.06 0.08 0.09 0.10 0.09 0.09 0.07 0.07 0.06 0.05 0.04 0.04 0.04 0.03 0.03 0.04 0.05 0.09 0.16 0.19 0.17 0.12
0.02 0.02 0.01 0.01 0.02 0.02 0.02 0.02 0.02 0.02 0.02 0.02 0.03 0.05 0.04 0.04 0.04 0.05 0.07 0.08 0.08 0.08 0.08 0.09 0.09 0.08 0.07 0.06 0.05 0.04 0.04 0.04 0.09 0.13 0.14 0.13 0.10 0.06
0.02 0.02 0.01 0.01 0.02 0.02 0.02 0.02 0.02 0.02 0.02 0.02 0.03 0.04 0.04 0.04 0.04 0.05 0.07 0.09 0.10 0.09 0.09 0.09 0.09 0.08 0.09 0.08 0.07 0.06 0.05 0.07 0.11 0.13 0.12 0.09 0.07 0.06
0.02 0.01 0.01 0.02 0.02 0.03 0.03 0.02 0.02 0.02 0.02 0.03 0.03 0.04 0.04 0.03 0.04 0.04 0.06 0.07 0.11 0.10 0.09 0.08 0.08 0.07 0.08 0.10 0.11 0.09 0.08 0.09 0.10 0.11 0.11 0.10 0.06 0.05
0.02 0.01 0.01 0.02 0.02 0.02 0.03 0.03 0.03 0.04 0.03 0.03 0.03 0.03 0.04 0.03 0.02 0.04 0.04 0.04 0.06 0.08 0.07 0.07 0.07 0.07 0.07 0.09 0.11 0.10 0.09 0.10 0.09 0.10 0.09 0.08 0.07 0.04
0.02 0.02 0.02 0.02 0.02 0.02 0.02 0.03 0.04 0.04 0.03 0.03 0.03 0.03 0.04 0.04 0.03 0.03 0.04 0.03 0.04 0.06 0.07 0.06 0.06 0.07 0.07 0.08 0.09 0.08 0.08 0.08 0.08 0.07 0.08 0.08 0.07 0.06
0.02 0.02 0.02 0.02 0.02 0.02 0.02 0.02 0.02 0.02 0.02 0.02 0.03 0.03 0.04 0.04 0.04 0.04 0.04 0.03 0.03 0.03 0.04 0.04 0.05 0.05 0.05 0.06 0.08 0.09 0.08 0.07 0.06 0.06 0.07 0.06 0.05 0.04
0.03 0.02 0.02 0.02 0.03 0.03 0.03 0.02 0.02 0.02 0.02 0.03 0.03 0.03 0.03 0.04 0.04 0.03 0.03 0.02 0.02 0.02 0.02 0.03 0.03 0.03 0.02 0.03 0.05 0.06 0.05 0.05 0.05 0.05 0.05 0.04 0.03 0.03
0.04 0.03 0.03 0.03 0.04 0.04 0.03 0.03 0.02 0.02 0.02 0.02 0.02 0.03 0.03 0.03 0.04 0.03 0.03 0.02 0.02 0.02 0.02 0.02 0.03 0.02 0.02 0.02 0.03 0.03 0.04 0.05 0.06 0.05 0.05 0.05 0.04 0.03
0.03 0.03 0.03 0.03 0.04 0.04 0.03 0.02 0.02 0.02 0.02 0.02 0.02 0.02 0.02 0.02 0.02 0.02 0.02 0.02 0.02 0.02 0.02 0.03 0.03 0.03 0.03 0.03 0.03 0.03 0.04 0.04 0.05 0.05 0.05 0.05 0.05 0.04
0.04 0.03 0.03 0.04 0.04 0.03 0.02 0.02 0.02 0.02 0.01 0.01 0.01 0.01 0.01 0.01 0.01 0.01 0.01 0.01 0.02 0.02 0.02 0.02 0.03 0.03 0.03 0.03 0.03 0.03 0.03 0.03 0.04 0.05 0.05 0.05 0.05 0.04
0.04 0.04 0.04 0.04 0.03 0.03 0.02 0.02 0.01 0.01 0.01 0.01 0.01 0.01 0.01 0.01 0.01 0.01 0.01 0.01 0.01 0.01 0.01 0.01 0.02 0.02 0.02 0.03 0.03 0.03 0.03 0.04 0.04 0.05 0.05 0.05 0.05 0.04
0.03 0.04 0.04 0.03 0.02 0.02 0.02 0.01 0.01 0.01 0.01 0.01 0.01 0.01 0.01 0.01 0.01 0.01 0.01 0.01 0.01 0.01 0.01 0.01 0.01 0.01 0.02 0.02 0.02 0.03 0.03 0.03 0.04 0.05 0.04 0.04 0.03 0.03
0.03 0.03 0.03 0.03 0.02 0.02 0.01 0.01 0.01 0.01 0.01 0.01 0.01 0.01 0.01 0.01 0.01 0.01 0.01 0.01 0.01 0.01 0.02 0.02 0.01 0.01 0.01 0.01 0.02 0.03 0.03 0.03 0.03 0.04 0.04 0.03 0.03 0.02
0.04 0.03 0.02 0.02 0.03 0.02 0.02 0.02 0.02 0.02 0.01 0.01 0.01 0.01 0.01 0.01 0.01 0.01 0.01 0.01 0.01 0.01 0.01 0.01 0.01 0.01 0.01 0.01 0.02 0.02 0.02 0.02 0.03 0.04 0.04 0.03 0.03 0.02
0.04 0.03 0.03 0.03 0.03 0.02 0.02 0.02 0.02 0.02 0.01 0.01 0.01 0.01 0.01 0.00 0.00 0.01 0.01 0.01 0.01 0.01 0.01 0.01 0.01 0.02 0.02 0.02 0.02 0.02 0.02 0.02 0.04 0.04 0.03 0.02 0.02 0.02
0.03 0.03 0.03 0.02 0.02 0.02 0.02 0.02 0.01 0.01 0.01 0.01 0.01 0.00 0.00 0.00 0.00 0.00 0.01 0.01 0.01 0.01 0.01 0.01 0.02 0.02 0.02 0.02 0.03 0.02 0.02 0.02 0.04 0.04 0.03 0.02 0.02 0.02
0.03 0.02 0.02 0.02 0.02 0.02 0.02 0.02 0.01 0.01 0.01 0.01 0.01 0.00 0.01 0.01 0.01 0.01 0.01 0.01 0.01 0.01 0.01 0.01 0.02 0.02 0.02 0.02 0.02 0.02 0.02 0.02 0.03 0.04 0.03 0.03 0.03 0.03
0.02 0.02 0.02 0.02 0.02 0.02 0.02 0.01 0.01 0.01 0.01 0.01 0.01 0.00 0.01 0.01 0.01 0.01 0.01 0.01 0.01 0.01 0.01 0.01 0.01 0.01 0.01 0.02 0.03 0.03 0.03 0.02 0.03 0.03 0.03 0.03 0.04 0.04
0.02 0.02 0.02 0.01 0.01 0.01 0.01 0.01 0.01 0.01 0.01 0.01 0.00 0.00 0.00 0.01 0.01 0.01 0.01 0.01 0.01 0.01 0.01 0.01 0.01 0.01 0.01 0.01 0.02 0.03 0.03 0.03 0.03 0.03 0.03 0.02 0.03 0.03
MSLP
1021.06 1021.01 1020.85 1020.55 1020.10 1019.46 1018.67 1017.74 1016.70 1015.57 1014.39 1013.16 1011.91 1010.62 1009.29 1007.91 1006.49 1005.03 1003.55 1002.05 1000.55 999.07 997.61 996.17 994.75 993.33 991.94 990.58 989.29 988.11 987.08 986.25 985.66 985.32 985.24 985.39 985.72 986.19
1020.62 1020.57 1020.44 1020.18 1019.78 1019.21 1018.48 1017.59 1016.57 1015.44 1014.21 1012.92 1011.57 1010.17 1008.73 1007.26 1005.78 1004.29 1002.80 1001.34 999.90 998.49 997.09 995.70 994.30 992.88 991.44 990.02 988.64 987.35 986.23 985.31 984.64 984.26 984.15 984.30 984.67 985.17
1020.13 1020.08 1019.96 1019.74 1019.39 1018.88 1018.21 1017.38 1016.39 1015.27 1014.02 1012.68 1011.27 1009.79 1008.29 1006.76 1005.25 1003.76 1002.31 1000.90 999.55 998.22 996.91 995.58 994.22 992.81 991.36 989.89 988.43 987.06 985.84 984.83 984.08 983.61 983.44 983.55 983.88 984.38
1019.61 1019.55 1019.44 1019.24 1018.93 1018.48 1017.86 1017.08 1016.14 1015.04 1013.80 1012.45 1011.01 1009.51 1007.97 1006.44 1004.93 1003.48 1002.09 1000.76 999.50 998.27 997.05 995.80 994.49 993.12 991.66 990.16 988.65 987.21 985.89 984.78 983.92 983.36 983.09 983.10 983.34 983.76
1019.08 1019.00 1018.88 1018.69 1018.40 1017.98 1017.41 1016.68 1015.78 1014.73 1013.52 1012.20 1010.78 1009.30 1007.79 1006.29 1004.83 1003.44 1002.13 1000.90 999.73 998.60 997.48 996.31 995.06 993.72 992.29 990.77 989.23 987.73 986.34 985.13 984.16 983.47 983.06 982.93 983.03 983.31
1018.56 1018.45 1018.30 1018.10 1017.81 1017.40 1016.86 1016.17 1015.32 1014.31 1013.17 1011.91 1010.55 1009.13 1007.70 1006.28 1004.90 1003.60 1002.39 1001.25 1000.19 999.15 998.11 997.02 995.85 994.56 993.16 991.66 990.12 988.58 987.14 985.84 984.76 983.92 983.35 983.04 982.96 983.05
1018.06 1017.90 1017.71 1017.48 1017.17 1016.75 1016.22 1015.55 1014.74 1013.80 1012.73 1011.55 1010.29 1008.98 1007.66 1006.35 1005.09 1003.90 1002.79 1001.75 1000.78 999.84 998.88 997.87 996.76 995.54 994.20 992.74 991.23 989.70 988.22 986.87 985.69 984.72 983.98 983.48 983.19 983.06
1017.59 1017.38 1017.13 1016.84 1016.49 1016.04 1015.49 1014.84 1014.07 1013.19 1012.20 1011.13 1009.99 1008.82 1007.62 1006.45 1005.32 1004.25 1003.25 1002.32 1001.44 1000.58 999.70 998.77 997.74 996.60 995.34 993.97 992.51 991.03 989.57 988.19 986.94 985.87 984.99 984.31 983.81 983.47
1017.16 1016.88 1016.58 1016.22 1015.80 1015.30 1014.73 1014.07 1013.33 1012.50 1011.60 1010.65 1009.64 1008.61 1007.56 1006.54 1005.54 1004.60 1003.71 1002.87 1002.08 1001.30 1000.51 999.66 998.73 997.70 996.55 995.29 993.94 992.54 991.14 989.79 988.53 987.39 986.40 985.58 984.92 984.39
1016.77 1016.43 1016.05 1015.62 1015.13 1014.58 1013.96 1013.29 1012.57 1011.79 1010.98 1010.12 1009.25 1008.35 1007.46 1006.58 1005.72 1004.90 1004.12 1003.38 1002.67 1001.97 1001.27 1000.52 999.70 998.80 997.79 996.69 995.48 994.22 992.93 991.65 990.42 989.28 988.24 987.33 986.55 985.90
1016.41 1016.01 1015.56 1015.06 1014.50 1013.89 1013.24 1012.55 1011.84 1011.11 1010.36 1009.60 1008.84 1008.08 1007.33 1006.58 1005.85 1005.14 1004.46 1003.82 1003.19 1002.58 1001.97 1001.33 1000.65 999.89 999.05 998.12 997.10 996.01 994.87 993.71 992.57 991.47 990.44 989.51 988.68 987.95
1016.07 1015.62 1015.12 1014.56 1013.94 1013.29 1012.60 1011.90 1011.19 1010.49 1009.81 1009.13 1008.48 1007.83 1007.19 1006.56 1005.95 1005.35 1004.76 1004.20 1003.66 1003.14 1002.63 1002.11 1001.56 1000.97 1000.30 999.56 998.74 997.84 996.88 995.87 994.85 993.85 992.88 991.97 991.15 990.41
1015.74 1015.26 1014.72 1014.12 1013.47 1012.78 1012.07 1011.36 1010.67 1010.00 1009.37 1008.76 1008.19 1007.64 1007.10 1006.57 1006.05 1005.54 1005.04 1004.56 1004.11 1003.68 1003.26 1002.86 1002.44 1002.00 1001.51 1000.96 1000.32 999.62 998.84 998.00 997.13 996.24 995.36 994.53 993.75 993.05
1015.41 1014.91 1014.36 1013.74 1013.07 1012.38 1011.67 1010.97 1010.29 1009.65 1009.06 1008.52 1008.01 1007.54 1007.08 1006.64 1006.20 1005.76 1005.34 1004.93 1004.55 1004.20 1003.88 1003.57 1003.28 1002.97 1002.63 1002.24 1001.78 1001.25 1000.64 999.96 999.23 998.47 997.70 996.96 996.27 995.63
1015.09 1014.59 1014.03 1013.42 1012.77 1012.08 1011.39 1010.71 1010.06 1009.46 1008.91 1008.42 1007.97 1007.56 1007.16 1006.78 1006.41 1006.04 1005.68 1005.33 1005.01 1004.73 1004.47 1004.25 1004.05 1003.85 1003.63 1003.37 1003.04 1002.65 1002.17 1001.63 1001.03 1000.38 999.73 999.08 998.47 997.92
1014.77 1014.29 1013.75 1013.16 1012.53 1011.88 1011.22 1010.58 1009.97 1009.41 1008.90 1008.45 1008.05 1007.69 1007.35 1007.02 1006.69 1006.38 1006.07 1005.77 1005.50 1005.26 1005.07 1004.90 1004.76 1004.63 1004.48 1004.30 1004.07 1003.77 1003.40 1002.95 1002.45 1001.90 1001.33 1000.77 1000.24 999.76
1014.47 1014.01 1013.50 1012.95 1012.37 1011.76 1011.14 1010.54 1009.98 1009.46 1009.00 1008.60 1008.23 1007.91 1007.61 1007.33 1007.05 1006.77 1006.50 1006.24 1006.01 1005.81 1005.64 1005.51 1005.40 1005.31 1005.20 1005.06 1004.88 1004.63 1004.32 1003.93 1003.49 1003.01 1002.51 1002.01 1001.54 1001.11
1014.20 1013.76 1013.29 1012.79 1012.25 1011.69 1011.13 1010.58 1010.07 1009.60 1009.18 1008.81 1008.49 1008.20 1007.94 1007.69 1007.45 1007.21 1006.97 1006.75 1006.54 1006.36 1006.22 1006.10 1006.00 1005.91 1005.81 1005.69 1005.52 1005.29 1005.00 1004.64 1004.24 1003.79 1003.33 1002.87 1002.43 1002.02
1013.95 1013.54 1013.11 1012.65 1012.16 1011.66 1011.15 1010.66 1010.19 1009.77 1009.39 1009.06 1008.78 1008.53 1008.30 1008.08 1007.87 1007.67 1007.46 1007.27 1007.09 1006.93 1006.79 1006.68 1006.58 1006.48 1006.38 1006.24 1006.07 1005.84 1005.55 1005.21 1004.81 1004.38 1003.94 1003.48 1003.05 1002.64
1013.73 1013.36 1012.96 1012.54 1012.10 1011.65 1011.19 1010.75 1010.33 1009.95 1009.61 1009.32 1009.07 1008.86 1008.66 1008.48 1008.30 1008.13 1007.96 1007.80 1007.64 1007.50 1007.38 1007.27 1007.17 1007.07 1006.95 1006.81 1006.62 1006.38 1006.09 1005.74 1005.35 1004.92 1004.46 1004.00 1003.55 1003.11
1013.55 1013.20 1012.84 1012.46 1012.06 1011.65 1011.24 1010.85 1010.47 1010.14 1009.84 1009.58 1009.37 1009.18 1009.02 1008.87 1008.73 1008.59 1008.46 1008.33 1008.21 1008.09 1007.99 1007.89 1007.80 1007.69 1007.57 1007.42 1007.23 1006.99 1006.69 1006.34 1005.94 1005.49 1005.03 1004.54 1004.05 1003.55
1013.41 1013.09 1012.75 1012.41 1012.04 1011.67 1011.31 1010.95 1010.62 1010.33 1010.07 1009.85 1009.66 1009.51 1009.38 1009.26 1009.16 1009.06 1008.96 1008.87 1008.78 1008.70 1008.62 1008.55 1008.47 1008.38 1008.26 1008.12 1007.92 1007.68 1007.38 1007.02 1006.61 1006.16 1005.66 1005.14 1004.59 1004.03
1013.33 1013.02 1012.71 1012.39 1012.06 1011.73 1011.40 1011.08 1010.79 1010.53 1010.31 1010.12 1009.97 1009.85 1009.75 1009.67 1009.60 1009.53 1009.48 1009.42 1009.37 1009.32 1009.28 1009.23 1009.17 1009.10 1009.01 1008.87 1008.69 1008.45 1008.15 1007.79 1007.37 1006.90 1006.37 1005.80 1005.19 1004.55
Thickness
5546 5543 5540 5538 5535 5532 5529 5526 5523 5523 5523 5520 5517 5517 5516 5515 5516 5516 5516 5517 5519 5520 5520 5521 5522 5523 5524 5524 5523 5523 5523 5523 5523 5522 5521 5521 5521 5521
5540 5537 5534 5531 5528 5526 5523 5520 5517 5514 5512 5512 5508 5508 5507 5506 5507 5508 5508 5509 5510 5511 5512 5512 5513 5513 5513 5513 5512 5512 5512 5512 5512 5512 5512 5512 5511 5511
5534 5531 5528 5525 5522 5519 5516 5513 5510 5507 5504 5503 5501 5500 5499 5499 5500 5501 5501 5501 5502 5503 5504 5504 5503 5503 5503 5502 5502 5502 5501 5501 5502 5502 5503 5502 5501 5501
5527 5524 5521 5518 5515 5512 5509 5506 5504 5501 5498 5495 5494 5493 5492 5492 5493 5494 5494 5493 5494 5495 5495 5495 5495 5494 5494 5493 5493 5493 5492 5492 5493 5493 5493 5492 5492 5492
5520 5517 5514 5512 5509 5506 5503 5500 5497 5495 5492 5489 5487 5486 5486 5486 5486 5487 5486 5486 5486 5486 5486 5487 5486 5486 5485 5485 5485 5485 5484 5484 5484 5484 5484 5484 5484 5485
5514 5511 5508 5506 5503 5500 5498 5494 5491 5489 5486 5483 5481 5480 5479 5479 5478 5479 5480 5479 5478 5478 5478 5477 5477 5477 5476 5476 5476 5477 5476 5475 5476 5476 5476 5477 5477 5477
5507 5505 5503 5500 5498 5495 5492 5489 5486 5483 5480 5477 5475 5474 5473 5472 5471 5471 5471 5471 5471 5469 5469 5469 5469 5468 5468 5467 5468 5468 5468 5468 5468 5468 5469 5470 5470 5470
5500 5498 5496 5494 5492 5490 5487 5484 5481 5478 5475 5472 5470 5468 5467 5466 5465 5464 5463 5464 5463 5462 5460 5460 5459 5459 5458 5459 5459 5460 5461 5461 5461 5461 5462 5463 5463 5463
5492 5490 5489 5487 5485 5482 5479 5477 5474 5472 5470 5467 5465 5463 5462 5461 5459 5458 5456 5454 5452 5450 5450 5452 5451 5450 5451 5451 5452 5453 5453 5454 5454 5455 5455 5456 5456 5456
5485 5483 5482 5480 5478 5476 5472 5469 5466 5464 5463 5461 5460 5459 5457 5456 5454 5452 5450 5448 5446 5444 5443 5442 5444 5444 5445 5445 5444 5445 5446 5446 5447 5448 5448 5449 5449 5449
5478 5476 5475 5473 5472 5469 5466 5462 5459 5456 5455 5455 5454 5453 5452 5450 5449 5447 5444 5443 5441 5440 5436 5434 5434 5434 5437 5438 5437 5437 5437 5438 5439 5439 5439 5440 5440 5442
5471 5469 5468 5467 5465 5462 5459 5456 5453 5450 5448 5448 5447 5446 5444 5443 5442 5439 5437 5435 5433 5432 5430 5427 5426 5425 5428 5430 5429 5429 5429 5430 5430 5431 5431 5432 5433 5434
5464 5462 5460 5460 5458 5456 5454 5451 5448 5445 5443 5441 5440 5438 5437 5435 5434 5432 5429 5427 5425 5423 5421 5420 5419 5418 5416 5418 5421 5421 5421 5421 5421 5422 5423 5425 5426 5427
5458 5456 5453 5452 5451 5449 5447 5444 5442 5440 5437 5435 5433 5431 5429 5428 5426 5425 5423 5421 5419 5416 5415 5413 5411 5410 5408 5409 5412 5414 5414 5414 5414 5414 5416 5418 5419 5421
5452 5450 5448 5445 5443 5441 5439 5437 5435 5433 5431 5429 5427 5424 5423 5421 5420 5418 5417 5415 5413 5410 5408 5407 5404 5402 5401 5400 5402 5403 5405 5407 5407 5407 5409 5410 5412 5414
5444 5442 5440 5438 5436 5433 5430 5428 5427 5426 5424 5422 5420 5418 5417 5415 5413 5412 5409 5407 5405 5403 5401 5400 5398 5397 5395 5395 5394 5396 5396 5397 5400 5400 5402 5404 5406 5408
5437 5434 5431 5428 5426 5424 5422 5420 5419 5418 5417 5415 5413 5412 5410 5409 5406 5404 5401 5399 5396 5394 5393 5394 5393 5392 5391 5390 5390 5391 5391 5391 5393 5394 5396 5399 5402 5403
5431 5427 5423 5420 5418 5416 5415 5413 5412 5411 5410 5409 5407 5405 5403 5402 5400 5397 5394 5391 5388 5387 5386 5386 5386 5388 5388 5388 5386 5385 5385 5386 5388 5389 5390 5393 5396 5399
5422 5419 5416 5413 5411 5410 5409 5408 5406 5405 5403 5402 5400 5398 5397 5395 5392 5390 5387 5384 5382 5381 5380 5379 5378 5379 5381 5382 5382 5381 5380 5382 5383 5385 5386 5387 5390 5394
5412 5410 5408 5407 5406 5404 5403 5402 5401 5399 5397 5395 5394 5392 5390 5388 5385 5383 5381 5378 5377 5376 5375 5374 5373 5372 5372 5372 5374 5376 5377 5377 5378 5381 5383 5385 5388 5393
5404 5403 5402 5401 5400 5399 5398 5397 5395 5393 5391 5389 5387 5385 5383 5381 5379 5377 5375 5374 5372 5370 5370 5369 5368 5369 5368 5368 5369 5372 5374 5375 5375 5376 5379 5382 5385 5390
5397 5396 5396 5396 5395 5394 5392 5391 5389 5388 5386 5384 5382 5379 5377 5374 5373 5370 5369 5367 5366 5365 5365 5365 5365 5365 5364 5364 5364 5366 5369 5372 5374 5376 5377 5379 5379 5383
5391 5390 5390 5389 5389 5388 5387 5385 5384 5382 5380 5378 5376 5374 5371 5369 5366 5365 5363 5361 5361 5360 5360 5360 5360 5360 5359 5359 5360 5361 5364 5366 5369 5373 5376 5377 5379 5382